Time,TemperatureF,DewpointF,PressureIn,WindDirection,WindDirectionDegrees,WindSpeedMPH,WindSpeedGustMPH,Humidity,HourlyPrecipIn,Conditions,Clouds,dailyrainin,SoftwareType,DateUTC
2013-01-09 00:04:00,61.2,60.6,30.17,WNW,288,4.0,19.0,98,0.60,,,2.95,meteohub,2013-01-09 06:04:00,
2013-01-09 00:09:00,61.2,60.6,30.16,NW,309,3.0,15.0,98,0.62,,,0.04,meteohub,2013-01-09 06:09:00,
2013-01-09 00:14:00,61.0,60.4,30.16,North,349,7.0,13.0,98,0.61,,,0.05,meteohub,2013-01-09 06:14:00,
2013-01-09 00:19:00,60.6,60.1,30.15,North,5,3.0,8.0,98,0.58,,,0.06,meteohub,2013-01-09 06:19:00,
2013-01-09 00:24:00,60.6,60.1,30.15,North,5,3.0,8.0,98,0.54,,,0.07,meteohub,2013-01-09 06:24:00,
2013-01-09 00:29:00,60.8,60.3,30.15,North,5,4.0,7.0,98,0.54,,,0.09,meteohub,2013-01-09 06:29:00,
2013-01-09 00:34:00,61.0,60.4,30.15,NE,52,4.0,7.0,98,0.48,,,0.10,meteohub,2013-01-09 06:34:00,
2013-01-09 00:39:00,61.0,60.4,30.14,NE,52,3.0,7.0,98,0.46,,,0.11,meteohub,2013-01-09 06:39:00,
2013-01-09 00:44:00,61.0,60.4,30.14,NE,49,5.0,7.0,98,0.45,,,0.12,meteohub,2013-01-09 06:44:00,
2013-01-09 00:49:00,60.8,60.3,30.14,ENE,59,4.0,8.0,98,0.41,,,0.13,meteohub,2013-01-09 06:49:00,
2013-01-09 00:54:00,60.8,60.3,30.14,ENE,60,5.0,9.0,98,0.31,,,0.14,meteohub,2013-01-09 06:54:00,
2013-01-09 00:59:00,60.6,60.1,30.14,ENE,69,5.0,9.0,98,0.21,,,0.15,meteohub,2013-01-09 06:59:00,
2013-01-09 01:04:00,60.4,59.9,30.14,ENE,69,0.0,9.0,98,0.15,,,0.16,meteohub,2013-01-09 07:04:00,
2013-01-09 01:09:00,60.4,59.9,30.14,ENE,69,2.0,9.0,98,0.13,,,0.17,meteohub,2013-01-09 07:09:00,
2013-01-09 01:14:00,60.4,59.9,30.13,ENE,69,2.0,7.0,98,0.13,,,0.18,meteohub,2013-01-09 07:14:00,
2013-01-09 01:19:00,60.3,59.7,30.12,ENE,63,5.0,5.0,98,0.13,,,0.19,meteohub,2013-01-09 07:19:00,
2013-01-09 01:24:00,60.3,59.7,30.12,ENE,57,3.0,7.0,98,0.13,,,0.20,meteohub,2013-01-09 07:24:00,
2013-01-09 01:29:00,60.3,59.7,30.12,ENE,57,2.0,7.0,98,0.11,,,0.20,meteohub,2013-01-09 07:29:00,
2013-01-09 01:35:00,60.3,59.7,30.13,ENE,57,0.0,7.0,98,0.11,,,0.21,meteohub,2013-01-09 07:35:00,
2013-01-09 01:40:00,60.4,59.9,30.13,ENE,57,0.0,7.0,98,0.10,,,0.21,meteohub,2013-01-09 07:40:00,
2013-01-09 01:45:00,60.4,59.9,30.13,ENE,57,0.0,4.0,98,0.10,,,0.22,meteohub,2013-01-09 07:45:00,
2013-01-09 01:50:00,60.4,59.9,30.12,ENE,57,3.0,3.0,98,0.12,,,0.24,meteohub,2013-01-09 07:50:00,
2013-01-09 01:55:00,60.4,59.9,30.12,ENE,74,8.0,8.0,98,0.14,,,0.28,meteohub,2013-01-09 07:55:00,
2013-01-09 02:00:00,60.4,59.9,30.10,ENE,77,4.0,9.0,98,0.15,,,0.31,meteohub,2013-01-09 08:00:00,
2013-01-09 02:05:00,60.4,59.9,30.09,ENE,71,10.0,10.0,98,0.15,,,0.31,meteohub,2013-01-09 08:05:00,
2013-01-09 02:10:00,60.4,59.9,30.11,East,89,7.0,11.0,98,0.15,,,0.32,meteohub,2013-01-09 08:10:00,
2013-01-09 02:15:00,60.4,59.9,30.10,East,86,13.0,13.0,98,0.14,,,0.33,meteohub,2013-01-09 08:15:00,
2013-01-09 02:20:00,60.4,59.9,30.10,East,96,19.0,19.0,98,0.14,,,0.33,meteohub,2013-01-09 08:20:00,
2013-01-09 02:25:00,60.4,59.9,30.10,East,96,18.0,19.0,98,0.16,,,0.39,meteohub,2013-01-09 08:25:00,
2013-01-09 02:30:00,60.4,59.9,30.09,East,95,15.0,21.0,98,0.21,,,0.42,meteohub,2013-01-09 08:30:00,
2013-01-09 02:35:00,60.4,59.9,30.10,East,94,13.0,21.0,98,0.22,,,0.43,meteohub,2013-01-09 08:35:00,
2013-01-09 02:40:00,60.4,59.9,30.10,East,80,9.0,21.0,98,0.22,,,0.44,meteohub,2013-01-09 08:40:00,
2013-01-09 02:45:00,60.4,59.9,30.10,East,88,10.0,21.0,98,0.20,,,0.45,meteohub,2013-01-09 08:45:00,
2013-01-09 02:50:00,60.6,60.1,30.11,ESE,105,13.0,23.0,98,0.19,,,0.47,meteohub,2013-01-09 08:50:00,
2013-01-09 02:55:00,60.6,60.1,30.11,East,94,17.0,23.0,98,0.19,,,0.49,meteohub,2013-01-09 08:55:00,
2013-01-09 03:00:00,60.6,60.1,30.10,East,90,18.0,23.0,98,0.22,,,0.54,meteohub,2013-01-09 09:00:00,
2013-01-09 03:05:00,60.4,59.9,30.10,East,98,17.0,23.0,98,0.23,,,0.55,meteohub,2013-01-09 09:05:00,
2013-01-09 03:10:00,60.4,59.9,30.10,East,95,17.0,23.0,98,0.23,,,0.55,meteohub,2013-01-09 09:10:00,
2013-01-09 03:15:00,60.4,59.9,30.09,East,97,16.0,23.0,98,0.22,,,0.55,meteohub,2013-01-09 09:15:00,
2013-01-09 03:20:00,60.4,59.9,30.09,East,83,15.0,24.0,98,0.20,,,0.56,meteohub,2013-01-09 09:20:00,
2013-01-09 03:25:00,60.4,59.9,30.09,ESE,106,15.0,24.0,98,0.16,,,0.56,meteohub,2013-01-09 09:25:00,
2013-01-09 03:30:00,61.0,60.4,30.09,East,86,13.0,24.0,98,0.15,,,0.57,meteohub,2013-01-09 09:30:00,
2013-01-09 03:35:00,61.3,60.8,30.09,ESE,103,13.0,21.0,98,0.14,,,0.57,meteohub,2013-01-09 09:35:00,
2013-01-09 03:41:00,61.3,60.8,30.09,East,94,16.0,19.0,98,0.14,,,0.58,meteohub,2013-01-09 09:41:00,
2013-01-09 03:46:00,61.3,60.8,30.10,East,97,10.0,21.0,98,0.13,,,0.59,meteohub,2013-01-09 09:46:00,
2013-01-09 03:51:00,61.3,60.8,30.10,East,96,11.0,21.0,98,0.14,,,0.61,meteohub,2013-01-09 09:51:00,
2013-01-09 03:56:00,61.2,60.6,30.10,East,84,7.0,21.0,98,0.13,,,0.62,meteohub,2013-01-09 09:56:00,
2013-01-09 04:01:00,61.2,60.6,30.10,ENE,68,8.0,16.0,98,0.11,,,0.65,meteohub,2013-01-09 10:01:00,
2013-01-09 04:06:00,61.0,60.4,30.10,ENE,72,9.0,14.0,98,0.12,,,0.67,meteohub,2013-01-09 10:06:00,
2013-01-09 04:11:00,60.8,60.3,30.11,East,92,5.0,14.0,98,0.13,,,0.68,meteohub,2013-01-09 10:11:00,
2013-01-09 04:16:00,61.2,60.6,30.11,East,94,7.0,13.0,98,0.14,,,0.69,meteohub,2013-01-09 10:16:00,
2013-01-09 04:21:00,61.3,60.8,30.12,ESE,103,5.0,10.0,98,0.13,,,0.69,meteohub,2013-01-09 10:21:00,
2013-01-09 04:26:00,61.3,60.8,30.12,ENE,76,8.0,10.0,98,0.18,,,0.73,meteohub,2013-01-09 10:26:00,
2013-01-09 04:31:00,61.0,60.4,30.12,ENE,78,3.0,8.0,98,0.21,,,0.78,meteohub,2013-01-09 10:31:00,
2013-01-09 04:37:00,61.0,60.4,30.11,East,88,7.0,8.0,98,0.23,,,0.81,meteohub,2013-01-09 10:37:00,
2013-01-09 04:42:00,60.8,60.3,30.10,East,81,11.0,13.0,98,0.26,,,0.84,meteohub,2013-01-09 10:42:00,
2013-01-09 04:47:00,60.6,60.1,30.10,East,89,9.0,14.0,98,0.27,,,0.86,meteohub,2013-01-09 10:47:00,
2013-01-09 04:52:00,60.6,60.1,30.10,ENE,78,10.0,14.0,98,0.27,,,0.88,meteohub,2013-01-09 10:52:00,
2013-01-09 04:57:00,60.6,60.1,30.10,ENE,74,8.0,14.0,98,0.27,,,0.89,meteohub,2013-01-09 10:57:00,
2013-01-09 05:02:00,60.4,59.9,30.10,ENE,75,8.0,11.0,98,0.24,,,0.89,meteohub,2013-01-09 11:02:00,
2013-01-09 05:07:00,60.4,59.9,30.10,ENE,76,5.0,11.0,98,0.22,,,0.89,meteohub,2013-01-09 11:07:00,
2013-01-09 05:12:00,60.4,59.9,30.11,East,81,6.0,11.0,98,0.21,,,0.89,meteohub,2013-01-09 11:12:00,
2013-01-09 05:17:00,60.4,59.9,30.11,East,82,5.0,11.0,98,0.20,,,0.89,meteohub,2013-01-09 11:17:00,
2013-01-09 05:22:00,60.4,59.9,30.11,ENE,76,5.0,10.0,98,0.19,,,0.89,meteohub,2013-01-09 11:22:00,
2013-01-09 05:27:00,60.6,60.1,30.10,East,100,7.0,9.0,98,0.15,,,0.89,meteohub,2013-01-09 11:27:00,
2013-01-09 05:32:00,60.6,60.1,30.11,East,88,9.0,11.0,98,0.11,,,0.89,meteohub,2013-01-09 11:32:00,
2013-01-09 05:37:00,60.8,60.3,30.12,East,96,8.0,13.0,98,0.08,,,0.89,meteohub,2013-01-09 11:37:00,
2013-01-09 05:42:00,61.0,60.4,30.12,East,82,5.0,13.0,98,0.05,,,0.89,meteohub,2013-01-09 11:42:00,
2013-01-09 05:47:00,61.0,60.4,30.12,East,86,7.0,13.0,98,0.06,,,0.92,meteohub,2013-01-09 11:47:00,
2013-01-09 05:52:00,61.2,60.6,30.13,ENE,74,5.0,11.0,98,0.04,,,0.92,meteohub,2013-01-09 11:52:00,
2013-01-09 05:57:00,61.2,60.6,30.13,ENE,77,1.0,11.0,98,0.03,,,0.92,meteohub,2013-01-09 11:57:00,
2013-01-09 06:02:00,61.0,60.4,30.14,ENE,67,2.0,11.0,98,0.04,,,0.92,meteohub,2013-01-09 12:02:00,
2013-01-09 06:07:00,60.6,60.1,30.13,ENE,63,5.0,10.0,98,0.08,,,0.97,meteohub,2013-01-09 12:07:00,
2013-01-09 06:12:00,60.4,59.9,30.12,ENE,62,0.0,8.0,98,0.09,,,0.98,meteohub,2013-01-09 12:12:00,
2013-01-09 06:17:00,60.4,59.9,30.11,East,80,9.0,10.0,98,0.09,,,0.98,meteohub,2013-01-09 12:17:00,
2013-01-09 06:22:00,61.2,60.8,30.11,East,89,9.0,14.0,99,0.09,,,0.98,meteohub,2013-01-09 12:22:00,
2013-01-09 06:27:00,61.2,60.8,30.12,East,90,7.0,14.0,99,0.09,,,0.98,meteohub,2013-01-09 12:27:00,
2013-01-09 06:32:00,61.3,60.8,30.12,East,82,7.0,14.0,98,0.10,,,0.99,meteohub,2013-01-09 12:32:00,
2013-01-09 06:37:00,61.2,60.6,30.12,ENE,74,5.0,13.0,98,0.10,,,0.99,meteohub,2013-01-09 12:37:00,
2013-01-09 06:42:00,61.3,60.8,30.13,ENE,77,5.0,11.0,98,0.12,,,1.01,meteohub,2013-01-09 12:42:00,
2013-01-09 06:48:00,61.3,60.8,30.13,East,84,6.0,9.0,98,0.09,,,1.01,meteohub,2013-01-09 12:48:00,
2013-01-09 06:53:00,61.3,60.8,30.13,East,80,7.0,10.0,98,0.10,,,1.02,meteohub,2013-01-09 12:53:00,
2013-01-09 06:58:00,61.7,61.3,30.14,East,99,9.0,13.0,99,0.14,,,1.05,meteohub,2013-01-09 12:58:00,
2013-01-09 07:03:00,61.9,61.5,30.13,East,91,6.0,16.0,99,0.17,,,1.10,meteohub,2013-01-09 13:03:00,
2013-01-09 07:08:00,62.1,61.5,30.13,ESE,103,11.0,16.0,98,0.15,,,1.12,meteohub,2013-01-09 13:08:00,
2013-01-09 07:13:00,63.0,62.6,30.13,ESE,103,13.0,16.0,99,0.17,,,1.15,meteohub,2013-01-09 13:13:00,
2013-01-09 07:18:00,63.1,62.8,30.13,ESE,107,9.0,16.0,99,0.19,,,1.17,meteohub,2013-01-09 13:18:00,
2013-01-09 07:23:00,63.0,62.6,30.13,ESE,109,10.0,18.0,99,0.20,,,1.18,meteohub,2013-01-09 13:23:00,
2013-01-09 07:28:00,63.0,62.6,30.13,East,96,11.0,18.0,99,0.22,,,1.21,meteohub,2013-01-09 13:28:00,
2013-01-09 07:33:00,62.8,62.2,30.13,ESE,103,10.0,18.0,98,0.25,,,1.24,meteohub,2013-01-09 13:33:00,
2013-01-09 07:38:00,63.0,62.4,30.13,East,98,11.0,18.0,98,0.27,,,1.26,meteohub,2013-01-09 13:38:00,
2013-01-09 07:43:00,63.0,62.6,30.14,East,98,9.0,18.0,99,0.27,,,1.28,meteohub,2013-01-09 13:43:00,
2013-01-09 07:48:00,62.8,62.4,30.14,East,92,10.0,16.0,99,0.28,,,1.29,meteohub,2013-01-09 13:48:00,
2013-01-09 07:53:00,62.8,62.2,30.14,East,93,9.0,16.0,98,0.28,,,1.30,meteohub,2013-01-09 13:53:00,
2013-01-09 07:58:00,62.4,61.9,30.14,East,97,11.0,16.0,98,0.24,,,1.30,meteohub,2013-01-09 13:58:00,
2013-01-09 08:04:00,62.4,61.9,30.14,East,90,9.0,14.0,98,0.20,,,1.30,meteohub,2013-01-09 14:04:00,
2013-01-09 08:09:00,62.4,61.9,30.14,ESE,111,8.0,14.0,98,0.18,,,1.30,meteohub,2013-01-09 14:09:00,
2013-01-09 08:14:00,62.4,61.9,30.14,ESE,102,12.0,13.0,98,0.15,,,1.30,meteohub,2013-01-09 14:14:00,
2013-01-09 08:19:00,62.8,62.2,30.15,ESE,107,13.0,17.0,98,0.13,,,1.30,meteohub,2013-01-09 14:19:00,
2013-01-09 08:24:00,62.8,62.2,30.15,East,92,8.0,17.0,98,0.12,,,1.30,meteohub,2013-01-09 14:24:00,
2013-01-09 08:29:00,63.0,62.6,30.15,ESE,104,8.0,17.0,99,0.09,,,1.30,meteohub,2013-01-09 14:29:00,
2013-01-09 08:34:00,63.0,62.6,30.16,East,101,6.0,16.0,99,0.06,,,1.30,meteohub,2013-01-09 14:34:00,
2013-01-09 08:39:00,62.8,62.4,30.16,East,95,7.0,14.0,99,0.04,,,1.30,meteohub,2013-01-09 14:39:00,
2013-01-09 08:44:00,63.0,62.6,30.16,East,94,7.0,14.0,99,0.02,,,1.30,meteohub,2013-01-09 14:44:00,
2013-01-09 08:49:00,62.8,62.4,30.16,East,95,9.0,13.0,99,0.01,,,1.30,meteohub,2013-01-09 14:49:00,
2013-01-09 08:54:00,62.8,62.2,30.16,ENE,78,7.0,13.0,98,0.00,,,1.30,meteohub,2013-01-09 14:54:00,
2013-01-09 08:59:00,62.8,62.2,30.16,East,96,7.0,13.0,98,0.00,,,1.30,meteohub,2013-01-09 14:59:00,
2013-01-09 09:04:00,62.8,62.4,30.17,East,92,7.0,14.0,99,0.00,,,1.30,meteohub,2013-01-09 15:04:00,
2013-01-09 09:09:00,63.0,62.6,30.17,East,101,6.0,14.0,99,0.01,,,1.31,meteohub,2013-01-09 15:09:00,
2013-01-09 09:14:00,63.1,62.8,30.18,East,82,6.0,14.0,99,0.02,,,1.32,meteohub,2013-01-09 15:14:00,
2013-01-09 09:19:00,63.0,62.6,30.18,East,86,9.0,10.0,99,0.04,,,1.34,meteohub,2013-01-09 15:19:00,
2013-01-09 09:24:00,62.8,62.2,30.18,East,92,9.0,11.0,98,0.05,,,1.35,meteohub,2013-01-09 15:24:00,
2013-01-09 09:30:00,62.8,62.2,30.17,East,85,8.0,11.0,98,0.05,,,1.35,meteohub,2013-01-09 15:30:00,
2013-01-09 09:35:00,62.6,62.1,30.17,East,80,7.0,11.0,98,0.05,,,1.35,meteohub,2013-01-09 15:35:00,
2013-01-09 09:40:00,62.8,62.2,30.18,East,82,6.0,13.0,98,0.05,,,1.35,meteohub,2013-01-09 15:40:00,
2013-01-09 09:45:00,62.8,62.2,30.18,ENE,78,10.0,13.0,98,0.06,,,1.36,meteohub,2013-01-09 15:45:00,
2013-01-09 09:50:00,62.8,62.2,30.18,ENE,71,8.0,13.0,98,0.10,,,1.40,meteohub,2013-01-09 15:50:00,
2013-01-09 09:55:00,62.8,62.2,30.19,East,90,6.0,10.0,98,0.14,,,1.44,meteohub,2013-01-09 15:55:00,
2013-01-09 10:00:00,63.0,62.4,30.19,East,95,9.0,11.0,98,0.17,,,1.48,meteohub,2013-01-09 16:00:00,
2013-01-09 10:05:00,63.0,62.6,30.19,East,81,6.0,11.0,99,0.17,,,1.48,meteohub,2013-01-09 16:05:00,
2013-01-09 10:10:00,63.0,62.6,30.19,East,95,8.0,11.0,99,0.16,,,1.48,meteohub,2013-01-09 16:10:00,
2013-01-09 10:15:00,63.0,62.6,30.19,ENE,74,8.0,10.0,99,0.15,,,1.49,meteohub,2013-01-09 16:15:00,
2013-01-09 10:20:00,62.8,62.4,30.19,ENE,76,7.0,9.0,99,0.14,,,1.49,meteohub,2013-01-09 16:20:00,
2013-01-09 10:25:00,62.8,62.2,30.18,ENE,66,5.0,11.0,98,0.14,,,1.49,meteohub,2013-01-09 16:25:00,
2013-01-09 10:30:00,62.6,62.1,30.18,ENE,63,5.0,11.0,98,0.14,,,1.49,meteohub,2013-01-09 16:30:00,
2013-01-09 10:35:00,62.2,61.7,30.18,ENE,61,5.0,11.0,98,0.14,,,1.49,meteohub,2013-01-09 16:35:00,
2013-01-09 10:40:00,62.1,61.5,30.18,ENE,69,5.0,11.0,98,0.13,,,1.49,meteohub,2013-01-09 16:40:00,
2013-01-09 10:45:00,62.1,61.5,30.18,ENE,71,8.0,11.0,98,0.08,,,1.49,meteohub,2013-01-09 16:45:00,
2013-01-09 10:50:00,62.2,61.7,30.17,ENE,77,7.0,10.0,98,0.05,,,1.49,meteohub,2013-01-09 16:50:00,
2013-01-09 10:55:00,62.2,61.7,30.17,ENE,70,12.0,12.0,98,0.02,,,1.49,meteohub,2013-01-09 16:55:00,
2013-01-09 11:01:00,62.1,61.5,30.17,East,90,6.0,12.0,98,0.01,,,1.49,meteohub,2013-01-09 17:01:00,
2013-01-09 11:06:00,62.1,61.5,30.17,ENE,78,5.0,12.0,98,0.01,,,1.49,meteohub,2013-01-09 17:06:00,
2013-01-09 11:11:00,61.9,61.3,30.16,ENE,76,9.0,12.0,98,0.02,,,1.51,meteohub,2013-01-09 17:11:00,
2013-01-09 11:16:00,61.9,61.3,30.16,ENE,73,5.0,11.0,98,0.02,,,1.51,meteohub,2013-01-09 17:16:00,
2013-01-09 11:21:00,61.9,61.3,30.15,East,89,8.0,11.0,98,0.02,,,1.51,meteohub,2013-01-09 17:21:00,
2013-01-09 11:26:00,61.7,61.2,30.15,East,81,9.0,11.0,98,0.02,,,1.51,meteohub,2013-01-09 17:26:00,
2013-01-09 11:31:00,61.5,61.2,30.15,ENE,78,11.0,14.0,99,0.02,,,1.51,meteohub,2013-01-09 17:31:00,
2013-01-09 11:36:00,61.5,61.0,30.15,ENE,75,7.0,15.0,98,0.02,,,1.51,meteohub,2013-01-09 17:36:00,
2013-01-09 11:42:00,61.5,61.0,30.16,East,86,5.0,15.0,98,0.02,,,1.51,meteohub,2013-01-09 17:42:00,
2013-01-09 11:47:00,61.3,60.8,30.16,ENE,71,5.0,15.0,98,0.02,,,1.51,meteohub,2013-01-09 17:47:00,
2013-01-09 11:52:00,61.3,60.8,30.15,ENE,75,5.0,11.0,98,0.02,,,1.51,meteohub,2013-01-09 17:52:00,
2013-01-09 11:57:00,61.2,60.8,30.14,ENE,78,8.0,11.0,99,0.02,,,1.51,meteohub,2013-01-09 17:57:00,
2013-01-09 12:02:00,61.2,60.8,30.14,East,80,11.0,13.0,99,0.02,,,1.51,meteohub,2013-01-09 18:02:00,
2013-01-09 12:07:00,61.2,60.8,30.14,ENE,75,11.0,13.0,99,0.02,,,1.51,meteohub,2013-01-09 18:07:00,
2013-01-09 12:12:00,61.2,60.8,30.13,ENE,70,12.0,13.0,99,0.00,,,1.51,meteohub,2013-01-09 18:12:00,
2013-01-09 12:17:00,61.2,60.8,30.13,ENE,72,11.0,13.0,99,0.00,,,1.51,meteohub,2013-01-09 18:17:00,
2013-01-09 12:22:00,61.0,60.6,30.13,East,81,9.0,14.0,99,0.00,,,1.51,meteohub,2013-01-09 18:22:00,
2013-01-09 12:27:00,61.2,60.8,30.12,ENE,69,10.0,14.0,99,0.00,,,1.51,meteohub,2013-01-09 18:27:00,
2013-01-09 12:32:00,61.0,60.6,30.12,ENE,78,8.0,14.0,99,0.00,,,1.51,meteohub,2013-01-09 18:32:00,
2013-01-09 12:37:00,61.2,60.8,30.12,East,81,8.0,15.0,99,0.00,,,1.51,meteohub,2013-01-09 18:37:00,
2013-01-09 12:41:00,61.2,60.8,30.12,ENE,72,9.0,15.0,99,0.00,,,1.51,meteohub,2013-01-09 18:41:00,
2013-01-09 12:42:00,61.2,60.8,30.12,ENE,75,9.0,15.0,99,0.00,,,1.51,meteohub,2013-01-09 18:42:00,
2013-01-09 12:44:00,61.2,60.8,30.12,East,96,9.0,15.0,99,0.00,,,1.51,meteohub,2013-01-09 18:44:00,
2013-01-09 12:45:00,61.2,60.8,30.12,ENE,76,7.0,15.0,99,0.00,,,1.51,meteohub,2013-01-09 18:45:00,
2013-01-09 12:46:00,61.2,60.8,30.12,East,80,7.0,15.0,99,0.00,,,1.51,meteohub,2013-01-09 18:46:00,
2013-01-09 12:48:00,61.3,61.0,30.12,East,80,9.0,15.0,99,0.00,,,1.51,meteohub,2013-01-09 18:48:00,
2013-01-09 12:50:00,61.2,60.8,30.12,ENE,78,10.0,15.0,99,0.00,,,1.51,meteohub,2013-01-09 18:50:00,
2013-01-09 12:51:00,61.2,60.8,30.12,East,85,8.0,15.0,99,0.00,,,1.51,meteohub,2013-01-09 18:51:00,
2013-01-09 12:56:00,61.3,61.0,30.12,ENE,73,9.0,15.0,99,0.00,,,1.51,meteohub,2013-01-09 18:56:00,
2013-01-09 13:01:00,61.3,61.0,30.12,ENE,75,10.0,15.0,99,0.00,,,1.51,meteohub,2013-01-09 19:01:00,
2013-01-09 13:06:00,61.5,61.2,30.12,East,85,10.0,14.0,99,0.00,,,1.51,meteohub,2013-01-09 19:06:00,
2013-01-09 13:11:00,61.7,61.3,30.12,East,91,7.0,14.0,99,0.00,,,1.51,meteohub,2013-01-09 19:11:00,
2013-01-09 13:16:00,61.9,61.5,30.12,East,80,8.0,15.0,99,0.00,,,1.51,meteohub,2013-01-09 19:16:00,
2013-01-09 13:21:00,62.1,61.7,30.12,East,83,10.0,15.0,99,0.00,,,1.51,meteohub,2013-01-09 19:21:00,
2013-01-09 13:26:00,62.1,61.7,30.12,East,89,9.0,15.0,99,0.00,,,1.51,meteohub,2013-01-09 19:26:00,
2013-01-09 13:31:00,62.1,61.7,30.12,East,86,8.0,15.0,99,0.00,,,1.51,meteohub,2013-01-09 19:31:00,
2013-01-09 13:36:00,62.1,61.7,30.12,East,93,7.0,15.0,99,0.00,,,1.51,meteohub,2013-01-09 19:36:00,
2013-01-09 13:41:00,62.1,61.7,30.12,East,79,7.0,15.0,99,0.00,,,1.51,meteohub,2013-01-09 19:41:00,
2013-01-09 13:46:00,62.1,61.7,30.11,East,96,9.0,14.0,99,0.00,,,1.51,meteohub,2013-01-09 19:46:00,
2013-01-09 13:52:00,62.2,61.9,30.11,East,80,11.0,15.0,99,0.00,,,1.51,meteohub,2013-01-09 19:52:00,
2013-01-09 13:57:00,62.2,61.9,30.10,East,85,6.0,15.0,99,0.00,,,1.51,meteohub,2013-01-09 19:57:00,
2013-01-09 14:02:00,62.4,62.1,30.10,East,96,8.0,15.0,99,0.00,,,1.51,meteohub,2013-01-09 20:02:00,
2013-01-09 14:07:00,62.4,62.1,30.10,East,82,10.0,15.0,99,0.00,,,1.51,meteohub,2013-01-09 20:07:00,
2013-01-09 14:12:00,62.4,62.1,30.09,East,88,11.0,15.0,99,0.00,,,1.51,meteohub,2013-01-09 20:12:00,
2013-01-09 14:17:00,62.4,62.1,30.09,East,96,7.0,15.0,99,0.00,,,1.51,meteohub,2013-01-09 20:17:00,
2013-01-09 14:22:00,62.4,62.1,30.09,ENE,65,8.0,15.0,99,0.00,,,1.51,meteohub,2013-01-09 20:22:00,
2013-01-09 14:27:00,62.8,62.4,30.09,East,85,13.0,15.0,99,0.00,,,1.51,meteohub,2013-01-09 20:27:00,
2013-01-09 14:32:00,62.8,62.4,30.09,East,92,9.0,16.0,99,0.00,,,1.51,meteohub,2013-01-09 20:32:00,
2013-01-09 14:37:00,63.0,62.6,30.09,East,89,7.0,16.0,99,0.00,,,1.51,meteohub,2013-01-09 20:37:00,
2013-01-09 14:43:00,63.0,62.6,30.09,East,96,10.0,16.0,99,0.00,,,1.51,meteohub,2013-01-09 20:43:00,
2013-01-09 14:48:00,63.1,62.8,30.09,ESE,108,9.0,17.0,99,0.00,,,1.51,meteohub,2013-01-09 20:48:00,
2013-01-09 14:53:00,63.3,63.0,30.09,East,92,7.0,17.0,99,0.00,,,1.51,meteohub,2013-01-09 20:53:00,
2013-01-09 14:58:00,63.3,63.0,30.10,East,92,9.0,17.0,99,0.00,,,1.51,meteohub,2013-01-09 20:58:00,
2013-01-09 15:03:00,63.3,63.0,30.10,ENE,78,8.0,17.0,99,0.00,,,1.51,meteohub,2013-01-09 21:03:00,
2013-01-09 15:08:00,63.3,63.0,30.10,ESE,102,10.0,15.0,99,0.00,,,1.51,meteohub,2013-01-09 21:08:00,
2013-01-09 15:13:00,63.3,63.0,30.10,East,94,15.0,16.0,99,0.00,,,1.51,meteohub,2013-01-09 21:13:00,
2013-01-09 15:18:00,63.5,63.1,30.10,East,100,13.0,17.0,99,0.00,,,1.51,meteohub,2013-01-09 21:18:00,
2013-01-09 15:23:00,63.7,63.3,30.10,ESE,105,13.0,17.0,99,0.00,,,1.51,meteohub,2013-01-09 21:23:00,
2013-01-09 15:28:00,63.9,63.5,30.09,East,100,8.0,17.0,99,0.00,,,1.51,meteohub,2013-01-09 21:28:00,
2013-01-09 15:33:00,63.9,63.5,30.09,East,80,14.0,15.0,99,0.00,,,1.51,meteohub,2013-01-09 21:33:00,
2013-01-09 15:38:00,63.9,63.5,30.10,East,92,10.0,17.0,99,0.00,,,1.51,meteohub,2013-01-09 21:38:00,
2013-01-09 15:43:00,63.9,63.5,30.09,East,92,9.0,17.0,99,0.00,,,1.51,meteohub,2013-01-09 21:43:00,
2013-01-09 15:48:00,63.9,63.5,30.10,East,92,7.0,17.0,99,0.00,,,1.51,meteohub,2013-01-09 21:48:00,
2013-01-09 15:53:00,63.9,63.5,30.09,East,101,10.0,15.0,99,0.00,,,1.51,meteohub,2013-01-09 21:53:00,
2013-01-09 15:58:00,64.0,63.7,30.10,East,94,9.0,16.0,99,0.00,,,1.51,meteohub,2013-01-09 21:58:00,
2013-01-09 16:03:00,64.0,63.7,30.10,East,84,8.0,16.0,99,0.00,,,1.51,meteohub,2013-01-09 22:03:00,
2013-01-09 16:09:00,64.0,63.7,30.10,East,96,9.0,16.0,99,0.00,,,1.51,meteohub,2013-01-09 22:09:00,
2013-01-09 16:13:00,64.0,63.7,30.10,ENE,65,9.0,14.0,99,0.00,,,1.51,meteohub,2013-01-09 22:13:00,
2013-01-09 16:18:00,64.0,63.7,30.10,East,97,11.0,14.0,99,0.00,,,1.51,meteohub,2013-01-09 22:18:00,
2013-01-09 16:24:00,64.2,63.9,30.10,East,86,7.0,14.0,99,0.00,,,1.51,meteohub,2013-01-09 22:24:00,
2013-01-09 16:29:00,64.0,63.7,30.10,East,84,14.0,15.0,99,0.00,,,1.51,meteohub,2013-01-09 22:29:00,
2013-01-09 16:34:00,64.0,63.7,30.09,ENE,72,11.0,15.0,99,0.00,,,1.51,meteohub,2013-01-09 22:34:00,
2013-01-09 16:39:00,64.0,63.7,30.09,East,83,8.0,15.0,99,0.00,,,1.51,meteohub,2013-01-09 22:39:00,
2013-01-09 16:44:00,64.0,63.7,30.09,East,90,11.0,19.0,99,0.00,,,1.51,meteohub,2013-01-09 22:44:00,
2013-01-09 16:49:00,64.0,63.7,30.09,East,85,13.0,19.0,99,0.00,,,1.51,meteohub,2013-01-09 22:49:00,
2013-01-09 16:54:00,64.2,63.9,30.09,East,83,9.0,19.0,99,0.00,,,1.51,meteohub,2013-01-09 22:54:00,
2013-01-09 16:59:00,64.2,63.9,30.10,East,84,14.0,18.0,99,0.00,,,1.51,meteohub,2013-01-09 22:59:00,
2013-01-09 17:04:00,64.2,63.9,30.10,East,94,14.0,18.0,99,0.00,,,1.51,meteohub,2013-01-09 23:04:00,
2013-01-09 17:09:00,64.4,64.0,30.10,East,96,11.0,18.0,99,0.00,,,1.51,meteohub,2013-01-09 23:09:00,
2013-01-09 17:14:00,64.6,64.2,30.10,East,95,11.0,16.0,99,0.00,,,1.51,meteohub,2013-01-09 23:14:00,
2013-01-09 17:19:00,64.8,64.4,30.11,East,86,9.0,14.0,99,0.00,,,1.51,meteohub,2013-01-09 23:19:00,
2013-01-09 17:24:00,64.9,64.6,30.11,ESE,113,12.0,15.0,99,0.00,,,1.51,meteohub,2013-01-09 23:24:00,
2013-01-09 17:29:00,65.1,64.8,30.12,ESE,115,11.0,15.0,99,0.00,,,1.51,meteohub,2013-01-09 23:29:00,
2013-01-09 17:34:00,65.1,64.8,30.12,ESE,108,10.0,15.0,99,0.00,,,1.51,meteohub,2013-01-09 23:34:00,
2013-01-09 17:39:00,65.5,65.1,30.12,ESE,106,9.0,15.0,99,0.00,,,1.51,meteohub,2013-01-09 23:39:00,
2013-01-09 17:44:00,65.5,65.1,30.12,SE,124,9.0,17.0,99,0.00,,,1.51,meteohub,2013-01-09 23:44:00,
2013-01-09 17:49:00,65.5,65.1,30.12,ESE,115,9.0,17.0,99,0.00,,,1.51,meteohub,2013-01-09 23:49:00,
2013-01-09 17:54:00,65.5,65.1,30.13,East,100,7.0,17.0,99,0.00,,,1.51,meteohub,2013-01-09 23:54:00,
2013-01-09 17:59:00,65.5,65.1,30.12,East,97,7.0,16.0,99,0.00,,,1.51,meteohub,2013-01-09 23:59:00,
2013-01-09 18:05:00,65.3,64.9,30.12,ESE,115,8.0,16.0,99,0.00,,,1.51,meteohub,2013-01-10 00:05:00,
2013-01-09 18:10:00,65.1,64.8,30.12,East,98,9.0,16.0,99,0.00,,,1.51,meteohub,2013-01-10 00:10:00,
2013-01-09 18:15:00,64.9,64.6,30.13,ESE,109,8.0,15.0,99,0.00,,,1.51,meteohub,2013-01-10 00:15:00,
2013-01-09 18:20:00,64.9,64.6,30.13,ESE,107,8.0,15.0,99,0.00,,,1.51,meteohub,2013-01-10 00:20:00,
2013-01-09 18:25:00,64.9,64.6,30.13,East,94,7.0,12.0,99,0.00,,,1.51,meteohub,2013-01-10 00:25:00,
2013-01-09 18:30:00,64.8,64.4,30.13,East,80,10.0,11.0,99,0.00,,,1.51,meteohub,2013-01-10 00:30:00,
2013-01-09 18:35:00,64.8,64.4,30.13,East,82,9.0,11.0,99,0.00,,,1.51,meteohub,2013-01-10 00:35:00,
2013-01-09 18:40:00,64.6,64.2,30.13,East,91,9.0,14.0,99,0.00,,,1.51,meteohub,2013-01-10 00:40:00,
2013-01-09 18:45:00,64.6,64.2,30.13,East,89,10.0,14.0,99,0.00,,,1.51,meteohub,2013-01-10 00:45:00,
2013-01-09 18:50:00,64.8,64.4,30.14,East,87,10.0,14.0,99,0.00,,,1.51,meteohub,2013-01-10 00:50:00,
2013-01-09 18:55:00,64.8,64.4,30.14,East,88,9.0,14.0,99,0.00,,,1.51,meteohub,2013-01-10 00:55:00,
2013-01-09 19:00:00,64.8,64.4,30.14,East,101,10.0,14.0,99,0.00,,,1.51,meteohub,2013-01-10 01:00:00,
2013-01-09 19:05:00,64.8,64.4,30.15,East,91,9.0,14.0,99,0.00,,,1.51,meteohub,2013-01-10 01:05:00,
2013-01-09 19:10:00,64.9,64.6,30.15,East,82,10.0,15.0,99,0.00,,,1.51,meteohub,2013-01-10 01:10:00,
2013-01-09 19:15:00,64.8,64.4,30.15,East,91,10.0,15.0,99,0.00,,,1.51,meteohub,2013-01-10 01:15:00,
2013-01-09 19:20:00,64.8,64.4,30.14,East,86,9.0,15.0,99,0.00,,,1.51,meteohub,2013-01-10 01:20:00,
2013-01-09 19:25:00,64.8,64.4,30.14,East,94,8.0,15.0,99,0.00,,,1.51,meteohub,2013-01-10 01:25:00,
2013-01-09 19:30:00,64.8,64.4,30.14,East,88,10.0,14.0,99,0.00,,,1.51,meteohub,2013-01-10 01:30:00,
2013-01-09 19:35:00,64.8,64.4,30.14,East,91,6.0,16.0,99,0.00,,,1.51,meteohub,2013-01-10 01:35:00,
2013-01-09 19:40:00,64.8,64.4,30.14,East,91,15.0,16.0,99,0.00,,,1.51,meteohub,2013-01-10 01:40:00,
2013-01-09 19:45:00,64.8,64.4,30.14,East,93,8.0,16.0,99,0.00,,,1.51,meteohub,2013-01-10 01:45:00,
2013-01-09 19:50:00,64.8,64.4,30.15,East,98,10.0,16.0,99,0.00,,,1.51,meteohub,2013-01-10 01:50:00,
2013-01-09 19:56:00,64.9,64.6,30.15,East,98,6.0,16.0,99,0.00,,,1.51,meteohub,2013-01-10 01:56:00,
2013-01-09 20:01:00,64.9,64.6,30.14,East,89,9.0,15.0,99,0.00,,,1.51,meteohub,2013-01-10 02:01:00,
2013-01-09 20:06:00,64.8,64.4,30.15,East,84,10.0,14.0,99,0.00,,,1.51,meteohub,2013-01-10 02:06:00,
2013-01-09 20:11:00,64.8,64.4,30.14,East,91,8.0,14.0,99,0.00,,,1.51,meteohub,2013-01-10 02:11:00,
2013-01-09 20:16:00,64.8,64.4,30.14,East,86,9.0,14.0,99,0.00,,,1.51,meteohub,2013-01-10 02:16:00,
2013-01-09 20:21:00,64.6,64.2,30.14,East,80,10.0,14.0,99,0.00,,,1.51,meteohub,2013-01-10 02:21:00,
2013-01-09 20:26:00,64.6,64.2,30.15,East,86,7.0,13.0,99,0.00,,,1.51,meteohub,2013-01-10 02:26:00,
2013-01-09 20:31:00,64.6,64.2,30.15,East,92,10.0,13.0,99,0.00,,,1.51,meteohub,2013-01-10 02:31:00,
2013-01-09 20:36:00,64.6,64.2,30.15,East,84,9.0,14.0,99,0.00,,,1.51,meteohub,2013-01-10 02:36:00,
2013-01-09 20:41:00,64.6,64.2,30.15,East,83,7.0,14.0,99,0.00,,,1.51,meteohub,2013-01-10 02:41:00,
2013-01-09 20:46:00,64.8,64.4,30.15,East,86,8.0,14.0,99,0.00,,,1.51,meteohub,2013-01-10 02:46:00,
2013-01-09 20:51:00,64.8,64.4,30.15,East,90,7.0,14.0,99,0.00,,,1.51,meteohub,2013-01-10 02:51:00,
2013-01-09 20:57:00,64.9,64.6,30.15,East,86,7.0,14.0,99,0.00,,,1.51,meteohub,2013-01-10 02:57:00,
2013-01-09 21:02:00,64.9,64.6,30.15,East,83,9.0,14.0,99,0.00,,,1.51,meteohub,2013-01-10 03:02:00,
2013-01-09 21:07:00,64.9,64.6,30.15,East,86,7.0,14.0,99,0.00,,,1.51,meteohub,2013-01-10 03:07:00,
2013-01-09 21:12:00,64.9,64.6,30.15,East,84,8.0,12.0,99,0.00,,,1.51,meteohub,2013-01-10 03:12:00,
2013-01-09 21:17:00,64.9,64.6,30.14,East,87,10.0,11.0,99,0.00,,,1.51,meteohub,2013-01-10 03:17:00,
2013-01-09 21:22:00,64.8,64.4,30.14,East,82,13.0,14.0,99,0.00,,,1.51,meteohub,2013-01-10 03:22:00,
2013-01-09 21:27:00,64.8,64.4,30.15,East,92,9.0,15.0,99,0.00,,,1.51,meteohub,2013-01-10 03:27:00,
2013-01-09 21:32:00,64.8,64.4,30.14,East,87,8.0,15.0,99,0.00,,,1.51,meteohub,2013-01-10 03:32:00,
2013-01-09 21:37:00,64.8,64.4,30.14,East,90,9.0,15.0,99,0.00,,,1.51,meteohub,2013-01-10 03:37:00,
2013-01-09 21:42:00,64.6,64.2,30.14,East,88,10.0,16.0,99,0.00,,,1.51,meteohub,2013-01-10 03:42:00,
2013-01-09 21:47:00,64.6,64.2,30.15,East,95,8.0,16.0,99,0.00,,,1.51,meteohub,2013-01-10 03:47:00,
2013-01-09 21:52:00,64.8,64.4,30.15,East,92,9.0,16.0,99,0.00,,,1.51,meteohub,2013-01-10 03:52:00,
2013-01-09 21:57:00,64.8,64.4,30.15,East,88,11.0,14.0,99,0.00,,,1.51,meteohub,2013-01-10 03:57:00,
2013-01-09 22:02:00,64.8,64.4,30.15,East,89,5.0,14.0,99,0.00,,,1.51,meteohub,2013-01-10 04:02:00,
2013-01-09 22:07:00,64.8,64.4,30.16,East,79,7.0,14.0,99,0.00,,,1.51,meteohub,2013-01-10 04:07:00,
2013-01-09 22:12:00,64.9,64.6,30.16,East,86,9.0,13.0,99,0.00,,,1.51,meteohub,2013-01-10 04:12:00,
2013-01-09 22:17:00,64.9,64.6,30.15,East,90,10.0,13.0,99,0.00,,,1.51,meteohub,2013-01-10 04:17:00,
2013-01-09 22:22:00,64.9,64.6,30.16,East,91,6.0,14.0,99,0.00,,,1.51,meteohub,2013-01-10 04:22:00,
2013-01-09 22:27:00,65.1,64.8,30.16,East,101,8.0,14.0,99,0.00,,,1.51,meteohub,2013-01-10 04:27:00,
2013-01-09 22:32:00,65.3,64.9,30.15,East,84,8.0,14.0,99,0.00,,,1.51,meteohub,2013-01-10 04:32:00,
2013-01-09 22:37:00,65.3,64.9,30.15,East,89,8.0,13.0,99,0.00,,,1.51,meteohub,2013-01-10 04:37:00,
2013-01-09 22:42:00,65.3,64.9,30.15,East,84,6.0,13.0,99,0.00,,,1.51,meteohub,2013-01-10 04:42:00,
2013-01-09 22:47:00,65.5,65.1,30.15,East,85,9.0,13.0,99,0.00,,,1.51,meteohub,2013-01-10 04:47:00,
2013-01-09 22:52:00,65.5,65.1,30.15,ESE,103,7.0,11.0,99,0.00,,,1.51,meteohub,2013-01-10 04:52:00,
2013-01-09 22:57:00,65.5,65.1,30.16,East,101,6.0,10.0,99,0.00,,,1.51,meteohub,2013-01-10 04:57:00,
2013-01-09 23:00:00,65.5,65.1,30.16,East,101,7.0,10.0,99,0.00,,,1.51,meteohub,2013-01-10 05:00:00,
2013-01-09 23:01:00,65.7,65.3,30.15,ESE,104,7.0,9.0,99,0.00,,,1.51,meteohub,2013-01-10 05:01:00,
2013-01-09 23:03:00,65.5,65.1,30.15,East,98,7.0,9.0,99,0.00,,,1.51,meteohub,2013-01-10 05:03:00,
2013-01-09 23:09:00,65.5,65.1,30.15,East,94,6.0,9.0,99,0.00,,,1.51,meteohub,2013-01-10 05:09:00,
2013-01-09 23:14:00,65.5,65.1,30.15,East,80,9.0,10.0,99,0.00,,,1.51,meteohub,2013-01-10 05:14:00,
2013-01-09 23:19:00,65.3,64.9,30.14,East,86,10.0,11.0,99,0.00,,,1.51,meteohub,2013-01-10 05:19:00,
2013-01-09 23:24:00,65.3,64.9,30.14,East,94,9.0,13.0,99,0.00,,,1.51,meteohub,2013-01-10 05:24:00,
2013-01-09 23:29:00,65.5,65.1,30.14,East,101,10.0,13.0,99,0.00,,,1.51,meteohub,2013-01-10 05:29:00,
2013-01-09 23:34:00,65.5,65.1,30.14,East,96,10.0,13.0,99,0.00,,,1.51,meteohub,2013-01-10 05:34:00,
2013-01-09 23:40:00,65.5,65.1,30.14,East,88,7.0,14.0,99,0.00,,,1.51,meteohub,2013-01-10 05:40:00,
2013-01-09 23:45:00,65.5,65.1,30.14,East,94,9.0,14.0,99,0.00,,,1.51,meteohub,2013-01-10 05:45:00,
2013-01-09 23:50:00,65.7,65.3,30.14,East,97,7.0,14.0,99,0.00,,,1.51,meteohub,2013-01-10 05:50:00,
2013-01-09 23:55:00,65.7,65.3,30.15,East,93,5.0,13.0,99,0.00,,,1.51,meteohub,2013-01-10 05:55:00,